EW3861 Weather Reports


time (UTC)temp
F
wind
direction
speed
knots
gust
knots
rain 1hr
in
rain 24hr
in
rain mn
in
humidity
%
barometer
mb
20260510201630 72 219 0.0 0.0 0.00 0.41 0.00 67 1010.0
20260510200054 72 206 0.0 0.0 0.00 0.41 0.00 65 1010.0
20260510194536 72 223 0.0 0.0 0.00 0.41 0.00 68 1010.3
20260510193128 72 221 0.0 0.0 0.00 0.41 0.00 68 1010.5
20260510191545 72 229 0.0 0.0 0.00 0.41 0.00 69 1010.6
20260510190006 72 222 0.0 0.0 0.00 0.41 0.00 68 1010.7
20260510184502 71 254 0.0 0.0 0.00 0.41 0.00 69 1010.6
20260510183056 71 201 0.0 0.0 0.00 0.41 0.00 69 1010.6
20260510181518 70 213 0.0 0.0 0.00 0.41 0.00 72 1010.7
20260510180104 69 228 0.0 0.0 0.00 0.41 0.00 73 1011.1
20260510174557 69 238 0.0 0.0 0.00 0.41 0.00 72 1011.1
20260510173012 68 220 0.0 0.0 0.00 0.41 0.00 73 1011.3
20260510171611 68 229 0.0 0.0 0.00 0.41 0.00 73 1011.4
20260510170014 66 225 0.0 0.0 0.00 0.41 0.00 76 1011.4
20260510164610 65 219 0.0 0.0 0.00 0.41 0.00 77 1011.6
20260510163017 64 288 0.0 0.0 0.00 0.41 0.00 82 1011.7
20260510161612 62 231 0.0 0.0 0.00 0.41 0.00 83 1011.7
20260510160028 61 234 0.0 0.0 0.00 0.41 0.00 83 1012.0
20260510154506 61 225 0.0 0.0 0.00 0.41 0.00 85 1011.9
20260510153101 60 212 0.0 0.0 0.00 0.41 0.00 85 1012.1
20260510151524 61 236 0.0 0.0 0.00 0.41 0.00 86 1012.1
20260510150001 60 232 0.0 0.0 0.00 0.41 0.00 86 1012.2
20260510144609 60 232 0.0 0.0 0.00 0.41 0.00 90 1012.2
20260510143009 59 209 0.0 0.0 0.00 0.41 0.00 92 1012.1
20260510141606 58 194 0.0 0.0 0.00 0.41 0.00 94 1012.0
20260510140022 57 232 0.0 0.0 0.00 0.41 0.00 96 1012.1
20260510134502 56 231 0.0 0.0 0.00 0.41 0.00 97 1012.1
20260510133058 55 219 0.0 0.0 0.00 0.41 0.00 97 1012.1
20260510131522 54 227 0.0 0.0 0.00 0.41 0.00 97 1012.0
20260510130109 54 255 0.0 0.0 0.00 0.41 0.00 98 1011.8
20260510124602 54 255 0.0 0.0 0.00 0.42 0.00 97 1012.0
20260510123012 54 205 0.0 0.0 0.00 0.42 0.00 97 1011.4
20260510121601 53 234 0.0 0.0 0.00 0.42 0.00 97 1011.4
20260510120033 53 221 0.0 0.0 0.00 0.42 0.00 98 1011.1
20260510114614 53 221 0.0 0.0 0.00 0.44 0.00 97 1011.6
20260510113033 53 263 0.0 0.0 0.00 0.44 0.00 97 1011.8
20260510111621 53 263 0.0 0.0 0.00 0.44 0.00 97 1011.7
20260510110038 52 263 0.0 0.0 0.00 0.44 0.00 97 1011.7
20260510104513 52 263 0.0 0.0 0.00 0.44 0.00 97 1011.8
20260510103051 52 280 0.0 0.0 0.00 0.44 0.00 97 1011.8
20260510101515 52 280 0.0 0.0 0.00 0.44 0.00 97 1011.7
20260510100105 52 287 0.0 0.0 0.00 0.44 0.00 97 1011.8
20260510094547 52 238 0.0 0.0 0.00 0.44 0.00 97 1011.6
20260510093003 52 217 0.0 0.0 0.00 0.44 0.00 97 1011.1
20260510091601 52 211 0.0 0.0 0.00 0.44 0.00 97 1011.0
20260510090019 52 211 0.0 0.0 0.00 0.44 0.00 97 1011.0
20260510084621 52 211 0.0 0.0 0.00 0.44 0.00 97 1010.8
20260510083039 52 211 0.0 0.0 0.00 0.44 0.00 97 1010.9
20260510081501 52 211 0.0 0.0 0.00 0.44 0.00 97 1010.9
20260510080055 52 211 0.0 0.0 0.00 0.44 0.00 97 1011.1
20260510074547 52 211 0.0 0.0 0.00 0.44 0.00 97 1011.0
20260510073006 52 208 0.0 0.0 0.00 0.44 0.00 97 1010.6
20260510071610 52 208 0.0 0.0 0.00 0.44 0.00 97 1010.6
20260510070026 52 205 0.0 0.0 0.00 0.44 0.00 97 1010.4
20260510064507 52 204 0.0 0.0 0.00 0.44 0.00 97 1010.4
20260510063107 52 220 0.0 0.0 0.00 0.44 0.00 97 1010.6
20260510061527 51 219 0.0 0.0 0.00 0.44 0.00 97 1010.7
20260510060111 51 214 0.0 0.0 0.00 0.44 0.00 96 1010.6
20260510054549 51 219 0.0 0.0 0.00 0.44 0.00 96 1010.6
20260510053001 51 219 0.0 0.0 0.00 0.44 0.00 96 1010.3
20260510051642 51 219 0.0 0.0 0.00 0.44 0.00 96 1010.5
20260510050009 51 219 0.0 0.0 0.00 0.44 0.00 96 1010.8
20260510044603 51 219 0.0 0.0 0.00 0.44 0.00 96 1010.7
20260510043029 50 219 0.0 0.0 0.00 0.44 0.00 96 1010.6
20260510041621 51 219 0.0 0.0 0.00 0.44 0.00 96 1010.6
20260510040004 51 219 0.0 0.0 0.00 0.44 0.44 96 1010.7
20260510034631 51 219 0.0 0.0 0.01 0.44 0.44 96 1010.6
20260510033056 51 219 0.0 0.0 0.02 0.44 0.44 96 1010.7
20260510031513 51 219 0.0 0.0 0.02 0.44 0.44 96 1010.8
20260510030001 51 219 0.0 0.0 0.02 0.44 0.44 95 1010.9
20260510024557 51 219 0.0 0.0 0.01 0.43 0.43 96 1011.3
20260510023033 51 219 0.0 0.0 0.00 0.42 0.42 96 1011.6
20260510021601 51 219 0.0 0.0 0.00 0.42 0.42 95 1011.8
20260510020024 52 219 0.0 0.0 0.00 0.42 0.42 95 1011.9
20260510014623 52 219 0.0 0.0 0.00 0.42 0.42 95 1012.1
20260510013049 52 219 0.0 0.0 0.00 0.42 0.42 95 1012.1
20260510011512 52 220 0.0 0.0 0.01 0.42 0.42 95 1012.2
20260510010106 53 216 0.0 0.0 0.01 0.42 0.42 95 1012.2
20260510004524 53 211 0.0 0.0 0.01 0.42 0.42 96 1012.2
20260510003126 53 208 0.0 0.0 0.02 0.42 0.42 96 1012.2
20260510001545 54 225 0.0 0.0 0.01 0.41 0.41 96 1012.1
20260510000006 54 227 0.0 0.0 0.03 0.41 0.41 95 1012.1
20260509234632 54 215 0.0 0.0 0.07 0.41 0.41 95 1012.1
20260509233050 54 217 0.0 0.0 0.12 0.40 0.40 95 1012.1
20260509231513 54 218 0.0 0.0 0.18 0.40 0.40 95 1012.0
20260509230109 54 216 0.0 0.0 0.24 0.38 0.38 95 1012.0
20260509224548 54 206 0.0 0.0 0.23 0.34 0.34 95 1011.9
20260509223011 55 242 0.0 0.0 0.20 0.28 0.28 94 1011.9
20260509221550 55 236 0.0 0.0 0.16 0.22 0.22 94 1011.7
20260509220009 55 238 0.0 0.0 0.11 0.14 0.14 94 1011.4
20260509214627 55 220 0.0 0.0 0.08 0.11 0.11 93 1011.3
20260509213101 55 216 0.0 0.0 0.05 0.08 0.08 92 1011.4
20260509211506 56 167 0.0 0.0 0.02 0.05 0.05 89 1011.3
20260509210104 57 206 0.0 0.0 0.00 0.03 0.03 84 1010.9
20260509204512 57 218 0.0 0.0 0.00 0.03 0.03 83 1010.5
20260509203104 57 217 0.0 0.0 0.00 0.03 0.03 85 1010.8